Location: Althorst
(53.6379°N, 10.7715°E)
Time: 02:55:04
(UTC+00:00)

Lacrosse 5 rocket - Pass Details

Date: 10 December 2019
Orbit: 464 x 633 km, 57.0° (Epoch: 19 January)

Event Time Altitude Azimuth Distance (km) Brightness Sun altitude
Rises 16:58:32 0° 234° (SW) 2,798 6.3 -16.7°
Reaches altitude 10° 17:00:51 10° 232° (SW) 1,873 5.1 -17.0°
Maximum altitude 17:05:04 67° 150° (SSE) 597 1.3 -17.6°
Enters shadow 17:06:19 41° 82° (E) 793 1.6 -17.8°
